Home > Weather > Bingen am Rhein > Past weeks

Flag for Germany Past Weather in Bingen am Rhein, Rhineland-Palatinate, Germany — Yesterday and Last 2 Weeks

Now
61 °F

Mostly cloudy.


Feels Like: 61 °F
Forecast: 48 / 68 °F
Wind: 10 mph from West

Location: Wiesbaden Airport

Current Time: Jul 2, 2016 at 9:28:43 AM

Latest Report: Jul 2, 2016 at 8:58 AM


Visibility: N/A

Pressure: 29.94 "Hg

Humidity: 72%

Dew Point: 52 °F

Location of Bingen am RheinLocation

Past Weather in Bingen am Rhein — Graph

°F

Bingen am Rhein Temperature Yesterday

Maximum temperature yesterday: 75 °F (at 5:58 PM)
Minimum temperature yesterday: 59 °F (at 3:58 AM)
Average temperature yesterday: 68 °F

High & Low Weather Summary for the Past Weeks

 TemperatureHumidityPressure
High90 °F (Jun 23, 3:58 PM)94% (Jun 18, 4:58 AM)30.27 "Hg (Jun 18, 4:58 AM)
Low46 °F (Jun 20, 4:58 AM)28% (Jun 29, 2:58 PM)29.68 "Hg (Jun 17, 8:58 AM)
Average65 °F70%30.05 "Hg
* Reported Jun 17 8:58 AM — Jul 2 8:00 AM, Bingen am Rhein, Weather by CustomWeather, © 2016

Note: Actual official high and low records may vary slightly from our data, if they occured in-between our weather recording intervals... More about our weather records

Advertising

Bingen am Rhein Weather History for the Previous 24 Hours

Scroll right to see more
 ConditionsComfort  
Time TempWeatherWind HumidityBarometerVisibility
8:00 AM
Sat, Jul 2
61 °FCloudy.7 mph77%29.94 "HgN/A
7:58 AM62 °FDrizzle. Mostly cloudy.8 mph77%29.93 "HgN/A
6:58 AM65 °FBroken clouds.9 mph78%29.89 "HgN/A
5:58 AM63 °FOvercast.3 mph82%29.89 "HgN/A
4:58 AM62 °FOvercast.1 mph86%29.89 "HgN/A
3:58 AM61 °FPartly cloudy.2 mph86%29.89 "HgN/A
2:58 AM63 °FOvercast.3 mph83%29.90 "HgN/A
1:58 AM64 °FOvercast.3 mph83%29.91 "HgN/A
12:58 AM66 °FOvercast.2 mph68%29.91 "HgN/A
11:58 PM
Fri, Jul 1
68 °FOvercast.No wind64%29.93 "HgN/A
10:58 PM66 °FOvercast.1 mph73%29.93 "HgN/A
9:58 PM70 °FSunny.No wind57%29.94 "HgN/A
8:58 PM71 °FSunny.5 mph57%29.94 "HgN/A
7:58 PM74 °FPassing clouds.7 mph51%29.95 "HgN/A
6:58 PM72 °FScattered clouds.9 mph52%29.96 "HgN/A
5:58 PM75 °FPartly sunny.9 mph47%29.96 "HgN/A
4:58 PM73 °FOvercast.12 mph51%29.98 "HgN/A
3:58 PM73 °FMore clouds than sun.17 mph53%29.98 "HgN/A
2:58 PM74 °FOvercast.17 mph51%29.98 "HgN/A
1:58 PM74 °FPartly sunny.15 mph49%29.99 "HgN/A
12:58 PM73 °FOvercast.18 mph52%30.00 "HgN/A
11:58 AM72 °FMore clouds than sun.13 mph57%30.01 "HgN/A
10:58 AM70 °FOvercast.10 mph61%30.00 "HgN/A
9:58 AM69 °FScattered clouds.10 mph63%30.00 "HgN/A
Weather by CustomWeather, © 2016

See weather overviewHow to use our weather pages